Theta_e
323 323 322 322 322 322 322 322 321 322 322 322 323 322 322 322 321 315 312 321 320 332 329 308 308 308 308 306 312 310 300 304 307 308 310 317 315 320 325 325 327 327 325 327 331
322 322 321 321 321 321 320 320 320 321 321 322 322 321 322 322 313 309 323 334 333 336 307 305 306 310 308 307 307 304 301 307 313 314 312 315 314 319 319 323 322 324 328 331 333
320 320 320 320 320 320 320 320 320 320 321 321 321 321 321 320 310 314 336 334 336 330 307 308 308 310 303 305 310 309 307 314 316 317 317 315 317 321 317 314 323 322 326 328 329
319 320 320 319 320 319 319 320 320 320 320 320 320 321 322 316 302 314 340 336 337 316 308 308 308 306 303 303 313 312 316 316 317 320 315 314 320 320 322 323 327 330 330 328 328
318 319 319 319 319 319 319 319 319 319 319 319 320 322 316 307 311 324 342 337 319 310 308 306 305 303 303 312 313 313 315 318 320 317 315 319 319 320 323 327 328 329 330 328 328
317 318 318 318 318 318 318 318 317 317 318 320 321 322 308 302 316 324 318 317 312 308 308 306 306 308 304 308 309 315 315 316 316 313 316 318 320 321 326 331 329 329 328 329 330
317 317 317 317 318 318 317 317 316 317 319 320 322 319 306 305 316 318 315 311 311 312 309 310 310 308 307 310 314 315 310 311 312 313 315 323 317 319 328 332 329 330 333 332 332
317 317 317 317 317 318 317 317 317 318 319 321 322 312 302 316 320 314 313 310 312 313 312 313 312 308 307 313 311 309 305 301 311 315 318 319 310 323 325 325 324 324 331 332 333
317 316 317 317 317 317 316 316 317 319 320 321 311 310 306 322 314 314 312 309 311 313 313 318 311 308 311 305 303 305 298 301 308 316 317 315 311 320 324 321 322 322 326 329 329
317 316 316 316 317 316 315 315 316 316 318 316 316 305 309 309 314 315 314 314 312 311 312 310 307 303 301 302 296 302 301 301 306 314 315 312 312 319 321 319 317 316 322 326 327
317 316 315 315 316 314 309 304 303 303 302 303 308 309 313 315 319 313 316 315 315 311 303 307 303 299 303 305 307 307 306 305 310 314 311 311 309 313 319 319 319 320 318 324 325
316 316 315 315 315 314 307 300 307 305 300 307 308 310 314 314 311 314 318 312 311 304 306 304 300 307 309 307 308 307 306 305 310 314 311 311 310 313 315 319 319 318 325 323 324
315 314 315 315 314 307 300 306 310 306 299 306 309 310 311 312 310 312 316 312 310 306 304 301 306 312 310 307 308 305 303 304 306 310 310 309 307 308 314 319 318 316 319 323 321
314 314 314 314 308 306 306 311 310 308 297 303 306 309 312 311 310 317 318 313 309 305 306 305 310 309 306 305 308 303 311 311 309 304 297 307 296 304 309 312 315 316 317 318 319
313 314 314 312 302 299 308 306 307 310 292 309 305 311 312 309 310 314 320 314 307 307 306 304 308 307 305 306 310 307 312 310 308 303 301 304 298 301 310 307 310 314 316 316 316
313 313 312 308 304 305 309 307 310 298 293 302 305 303 303 308 310 314 314 316 314 308 307 305 311 310 309 311 311 313 309 306 303 301 293 301 301 301 304 307 312 315 316 312 310
313 312 310 311 303 307 307 308 295 292 306 300 300 303 302 307 309 311 308 306 302 299 298 307 306 308 310 306 305 303 298 292 293 293 292 303 300 300 308 314 315 314 311 311 311
311 309 308 309 305 307 307 302 291 302 303 307 304 304 302 306 307 308 308 303 306 304 301 300 299 308 311 305 301 302 300 293 288 290 294 304 298 303 313 313 316 316 311 310 309
308 307 308 310 310 307 304 294 297 305 310 307 303 299 300 304 304 304 305 303 306 306 301 301 303 313 313 311 309 304 299 302 294 297 296 299 305 310 313 312 315 312 311 309 309
303 306 307 316 311 305 299 296 302 311 312 309 300 301 297 299 300 301 303 308 308 312 312 307 302 312 314 314 312 304 307 297 294 289 290 297 300 301 307 309 311 312 309 308 309
308 306 313 312 309 301 293 297 305 311 310 308 305 305 304 300 300 301 303 308 313 316 313 309 306 306 310 307 304 302 300 299 296 296 292 292 296 308 308 311 310 313 309 308 310
305 301 314 309 297 295 294 302 307 308 309 309 309 309 307 307 301 302 305 308 317 314 310 311 305 302 304 310 313 306 302 299 293 293 297 297 297 311 311 314 313 312 308 308 311
299 302 311 306 292 291 297 304 307 305 306 308 307 311 311 306 300 306 309 316 320 317 310 309 301 298 299 302 306 306 304 303 299 298 295 294 297 313 314 312 312 309 308 309 310
302 300 304 302 299 296 296 302 306 313 309 312 310 308 306 304 304 306 310 316 321 318 320 312 303 301 296 299 303 302 306 305 300 295 297 299 303 309 310 311 313 311 309 309 309
303 300 309 298 298 296 297 303 304 306 309 308 306 308 303 300 303 304 310 311 316 317 314 306 299 303 305 309 309 305 304 305 300 302 300 304 305 309 311 312 312 313 309 309 308
302 306 311 308 307 299 298 300 306 308 307 304 304 309 309 301 305 302 308 306 307 311 308 310 302 306 303 310 310 306 307 305 309 309 308 307 305 312 315 311 312 311 310 310 310
308 307 311 306 306 297 298 303 307 309 309 310 309 307 308 310 311 309 310 310 310 307 310 307 305 301 298 307 307 301 306 306 307 310 308 302 306 313 311 311 312 308 310 310 311
Wind_Speed
13 12 12 13 12 12 14 14 14 14 14 14 16 17 18 18 18 3 4 9 5 7 1 5 3 3 5 7 6 5 5 3 8 9 6 6 5 2 14 15 7 7 8 5 8
12 12 12 13 13 13 15 15 14 14 14 14 16 18 17 15 4 3 8 8 7 1 2 2 6 8 4 5 6 7 5 8 3 8 5 3 4 8 8 19 9 12 11 1 5
12 12 13 14 14 14 15 16 14 14 15 14 16 18 17 12 3 5 7 6 1 1 2 1 3 2 0 4 4 2 6 8 3 4 6 3 2 3 17 11 8 11 5 6 6
12 12 13 14 14 14 15 15 15 16 15 15 16 18 22 2 2 3 8 6 1 3 2 3 3 8 8 7 5 15 14 11 8 5 4 2 2 14 16 9 16 8 6 6 7
12 12 13 15 15 14 15 15 14 14 14 14 15 17 6 5 8 2 7 6 1 2 3 1 5 3 7 6 6 15 5 10 14 11 4 5 11 9 15 16 14 14 9 11 9
11 12 13 15 15 14 15 14 13 13 12 12 13 16 2 3 4 6 6 5 2 1 1 5 4 5 3 1 4 7 8 8 7 11 6 12 17 11 13 15 15 14 14 10 9
12 13 14 15 15 15 14 14 13 12 12 12 11 4 1 12 3 5 6 5 5 4 3 5 4 2 1 6 3 8 10 5 5 6 6 10 27 24 22 16 16 5 13 11 10
11 12 14 16 16 15 15 15 14 13 12 9 4 1 7 6 4 5 6 6 6 6 5 12 6 3 3 8 5 5 6 5 10 2 5 14 7 12 11 12 10 13 7 11 13
12 13 13 15 16 16 16 18 16 14 9 6 1 1 10 10 3 8 6 5 4 5 5 6 4 2 7 6 6 6 3 3 4 9 6 9 5 5 13 7 10 10 5 9 11
12 13 13 14 15 15 20 14 4 8 3 4 3 4 5 4 3 3 4 5 5 4 6 4 5 3 4 6 3 5 4 1 6 5 21 17 10 8 6 6 6 7 2 4 8
12 13 13 13 13 13 11 4 7 4 2 6 3 5 6 6 4 3 5 3 2 3 1 4 6 6 13 8 9 3 7 10 9 9 11 9 11 10 9 2 4 4 4 1 7
13 14 14 13 12 9 2 1 7 2 9 8 9 7 11 2 5 4 6 4 2 4 3 7 6 15 9 6 8 12 9 6 6 3 10 8 11 7 3 2 5 4 4 9 6
12 12 12 11 11 4 2 8 6 5 2 10 6 5 6 7 5 6 7 4 1 2 2 4 13 17 5 11 13 6 10 6 10 6 2 11 5 5 2 1 2 3 2 3 5
11 11 11 11 5 4 6 5 9 5 5 8 4 6 3 5 4 7 7 5 2 2 4 7 15 11 3 6 10 4 6 20 17 4 2 4 2 1 2 3 5 7 6 6 3
10 10 8 5 4 3 6 7 7 7 3 3 4 5 1 7 3 3 6 4 3 7 4 14 6 8 8 5 5 6 4 8 5 8 5 8 4 3 3 1 5 7 6 4 8
11 10 7 1 1 8 10 10 6 7 5 3 5 2 2 1 4 4 4 3 3 0 2 9 5 3 7 4 8 10 10 10 5 4 5 4 2 5 6 6 3 4 6 11 10
12 9 4 2 6 4 7 6 6 3 6 3 4 4 2 2 1 1 5 3 4 4 6 6 6 6 6 6 6 5 7 4 4 6 3 2 3 9 4 6 6 5 15 13 11
13 7 7 5 5 7 5 7 2 5 6 5 3 4 4 1 3 2 1 3 1 5 1 1 7 4 6 6 4 3 7 6 4 4 2 5 3 7 3 8 5 6 13 10 8
11 1 3 6 5 4 7 4 7 6 5 4 5 4 2 3 2 1 7 7 7 8 6 3 4 4 3 2 7 3 3 4 8 4 5 3 6 5 6 6 6 6 12 11 9
2 3 5 4 8 6 6 6 5 4 7 5 2 3 9 7 6 6 5 6 4 7 8 6 3 3 4 10 6 3 3 6 5 3 1 3 4 5 2 5 7 9 12 9 7
3 4 6 8 6 7 4 8 6 7 11 3 1 2 3 5 9 5 5 3 2 1 2 5 3 4 4 2 4 5 4 6 5 5 6 3 7 6 8 8 9 3 11 13 11
2 2 5 5 5 1 3 5 7 8 12 6 2 2 3 3 6 7 3 3 5 6 7 4 5 3 5 4 4 5 6 6 7 4 3 5 6 4 9 8 9 7 10 10 12
1 3 3 6 2 3 6 5 5 8 7 6 2 1 3 3 3 1 4 2 1 4 6 6 2 3 8 8 5 2 4 5 5 4 0 6 5 7 8 8 8 10 12 12 12
3 2 5 5 2 5 2 5 4 5 9 2 2 0 4 4 4 3 2 4 3 3 3 8 3 8 7 7 4 3 3 4 7 5 2 2 7 5 7 10 7 6 12 12 12
2 5 3 3 5 5 3 3 5 5 4 1 4 1 2 2 5 3 2 3 6 4 3 6 4 4 5 3 0 4 3 8 5 8 7 10 13 16 14 12 12 9 10 12 11
2 2 5 4 4 7 6 4 5 7 6 6 4 7 2 5 4 2 3 0 4 1 2 3 2 1 5 4 6 3 5 8 6 7 7 8 4 9 9 5 5 8 14 13 13
2 2 4 5 6 5 5 7 9 4 7 9 11 3 2 4 3 6 6 5 6 8 3 3 4 3 1 4 6 5 4 6 4 4 11 8 8 6 4 10 9 12 15 15 14
Wind_Direction
320 325 324 320 320 322 317 318 320 320 321 322 319 316 315 322 312 156 256 208 196 210 43 326 322 319 171 188 191 123 89 146 187 160 223 284 113 42 93 70 32 3 89 122 196
319 321 320 318 320 319 313 313 317 320 319 323 319 315 317 328 312 274 252 162 214 80 340 13 326 353 320 272 186 132 119 191 124 162 189 283 55 168 116 89 73 81 90 47 276
315 318 319 317 317 315 309 310 315 319 319 325 320 314 317 320 322 263 146 175 57 231 238 12 328 273 329 300 353 122 105 121 138 175 135 187 8 20 97 97 122 116 93 52 29
313 319 317 315 312 311 307 308 315 318 320 325 320 316 317 207 74 262 160 136 90 243 302 19 337 351 14 90 320 94 136 153 176 144 89 272 248 70 99 108 124 114 133 130 85
318 316 315 310 309 308 307 309 312 315 318 321 320 323 344 357 259 225 135 109 178 210 79 61 2 29 21 109 55 100 142 135 156 98 83 38 26 74 97 114 122 123 134 95 78
315 315 313 308 307 308 304 307 306 310 311 317 320 322 345 325 231 152 149 120 245 101 211 166 204 251 195 246 155 198 141 139 86 114 114 68 31 39 120 113 91 97 98 122 135
315 315 310 307 308 308 307 305 300 301 305 312 320 331 19 239 42 149 191 185 184 190 275 214 174 41 75 72 343 124 97 109 135 128 98 99 28 24 11 57 50 88 109 113 109
312 313 311 309 309 310 309 300 295 295 295 299 321 320 253 252 320 240 180 280 241 232 219 267 275 288 166 132 29 89 56 76 8 155 46 90 112 135 68 359 55 44 70 108 92
320 315 310 310 311 315 309 298 289 283 270 257 319 55 274 311 246 244 152 220 270 265 233 288 22 256 40 84 13 8 98 74 24 354 107 59 170 162 118 240 108 97 33 108 99
314 312 312 315 318 323 312 290 279 308 159 192 254 334 277 296 221 207 209 205 256 315 355 7 34 49 82 61 198 229 84 267 117 38 85 94 132 141 117 191 188 116 77 48 141
317 317 317 321 322 331 344 3 7 360 140 205 201 266 267 308 257 226 184 151 252 73 262 336 34 274 267 160 211 119 97 106 112 121 70 96 121 147 160 138 247 128 86 194 182
325 322 320 317 314 326 302 342 216 159 312 230 234 254 258 240 300 286 133 157 124 225 25 3 274 259 259 191 197 87 106 100 65 359 104 158 150 158 168 209 260 143 162 172 169
319 318 314 311 312 315 219 244 301 41 359 295 205 213 234 138 211 248 142 135 172 313 3 159 261 291 295 96 101 136 149 172 146 148 108 159 132 155 84 124 314 311 290 266 180
320 319 318 314 335 321 270 285 317 142 46 278 195 264 227 191 279 212 177 138 66 217 255 249 295 251 216 98 114 111 166 142 157 157 154 79 120 161 192 238 235 234 219 249 132
328 328 335 21 289 313 265 326 310 54 16 251 205 222 199 159 252 201 168 79 231 272 80 274 283 109 84 140 118 187 104 115 112 81 75 342 80 203 306 127 197 218 233 227 146
327 329 332 84 258 246 305 319 48 46 272 279 154 199 120 178 297 2 146 85 182 12 16 246 222 146 154 103 95 109 84 63 65 100 51 269 97 296 167 178 170 189 117 131 143
319 313 284 327 243 338 342 36 45 129 312 226 177 159 171 187 293 37 149 145 158 43 314 338 332 345 91 76 53 94 81 18 351 23 223 351 26 240 186 189 183 135 133 154 150
313 308 228 228 263 15 35 51 132 256 267 230 157 104 172 106 280 250 308 204 250 108 145 189 344 48 305 117 165 86 136 153 233 171 223 2 265 268 254 173 124 108 142 141 133
317 237 277 258 211 112 70 81 215 218 290 359 63 112 239 272 155 103 188 210 217 169 156 162 257 315 356 66 103 324 346 193 110 64 87 240 282 350 65 86 120 145 145 148 160
23 0 267 195 131 65 76 236 246 244 302 30 136 146 188 218 174 170 201 200 240 176 155 212 57 342 304 48 22 84 228 30 9 99 62 290 291 238 174 174 166 181 138 148 129
56 18 268 130 76 52 168 236 295 297 15 73 174 81 225 228 193 172 216 277 130 261 42 127 118 322 34 62 204 10 18 55 104 128 150 164 265 204 190 163 174 155 146 152 149
62 24 277 68 63 101 199 220 325 305 327 280 122 145 231 236 178 194 146 216 337 164 140 181 123 124 232 249 228 163 168 126 114 275 98 129 272 344 174 176 166 158 160 154 158
59 254 322 84 173 262 284 289 257 294 298 289 281 132 40 307 98 188 138 31 35 136 166 181 80 74 348 355 360 139 172 141 106 82 297 121 258 11 131 136 160 155 153 156 158
75 347 319 46 136 146 320 278 260 269 263 207 283 191 22 343 353 128 106 44 32 61 78 79 113 148 170 208 177 310 223 101 119 97 204 198 145 243 166 165 184 157 155 151 158
90 250 217 271 283 211 184 277 315 312 285 103 344 335 174 339 5 89 59 24 35 360 69 96 133 152 219 285 13 225 109 160 125 168 133 185 164 193 190 193 199 157 158 151 143
126 63 344 267 270 175 173 255 221 267 224 271 171 258 358 202 165 327 128 128 209 346 84 28 240 101 39 11 46 23 357 118 122 126 92 134 186 182 196 213 173 159 165 158 163
302 336 115 291 311 119 220 223 264 13 280 217 209 177 277 267 256 208 199 197 188 151 136 103 110 69 117 347 53 358 307 166 133 126 133 151 213 137 162 196 197 173 172 170 172